Regional Weather Roundup
Issued by NWS

Home | Current Version | Previous Version | Text Only | Print | Product List | Glossary On
Versions: 1 2 3 4 5 6 7 8 9 10 11 12 13 14 15 16 17 18 19 20 21 22 23 24 25 26 27 28 29 30 31 32 33 34 35 36 37 38 39 40 41 42 43 44 45 46 47 48 49 50
000
ASUS43 KFSD 300010
RWRSD

WEATHER ROUNDUP FOR SOUTH DAKOTA
NATIONAL WEATHER SERVICE SIOUX FALLS SD
700 PM CDT MON SEP 29 2014

NOTE: "FAIR" INDICATES FEW OR NO CLOUDS BELOW 12,000 FEET WITH NO
SIGNIFICANT WEATHER AND/OR OBSTRUCTIONS TO VISIBILITY.


SDZ001>005-009-010-012>017-300100-
NORTHWEST AND NORTH CENTRAL SOUTH DAKOTA

CITY           SKY/WX    TMP DP  RH WIND       PRES   REMARKS
BUFFALO          N/A     51  49  92 E8        29.87F
FAITH            N/A     54  53  97 E12       29.94F
MOBRIDGE       CLOUDY    61  50  67 E14       29.96F
$$

SDZ012>016-024>037-041>051-057-063-072>074-300100-
SOUTHWEST AND SOUTH CENTRAL SOUTH DAKOTA

CITY           SKY/WX    TMP DP  RH WIND       PRES   REMARKS
RAPID CTY ARPT CLOUDY    51  50  96 SE3       29.93F FOG
PIERRE         CLOUDY    66  56  70 E12       29.92S
CUSTER         FOG       51  50  96 N3        29.94F VSB 1/4
ELLSWORTH AFB  FOG       52  52 100 S5        29.92  VSB 1
PHILIP         LGT RAIN  57  55  93 E14       29.87F
PINE RIDGE     CLOUDY    61  57  87 E9        29.89S
WINNER         CLOUDY    67  60  78 E8        29.90F
$$

SDZ004>011-016>023-039-040-300100-
NORTHEAST SOUTH DAKOTA

CITY           SKY/WX    TMP DP  RH WIND       PRES   REMARKS
ABERDEEN       PTCLDY    60  50  69 E9        30.01F
WATERTOWN      CLOUDY    56  50  80 E14       30.03S
SISSETON         N/A     56  50  80 SE9       30.06S
$$

SDZ017-020-022-023-036>040-048>070-300100-
SOUTHEAST SOUTH DAKOTA

CITY           SKY/WX    TMP DP  RH WIND       PRES   REMARKS
SIOUX FALLS    PTCLDY    64  56  75 E10       30.00S
HURON          PTCLDY    66  54  65 E13       29.97R
CHAMBERLAIN    PTCLDY    67  59  74 E10       29.91F
MITCHELL       CLEAR     68  59  73 E14       29.95F
YANKTON        CLEAR     72  61  68 E8        29.94S
$$

ABBREVIATIONS USED IN REMARKS
   TC - TEMPERATURE IN CELSIUS
  WCI - WIND CHILL INDEX
   HX - HEAT INDEX
  VSB - VISIBILITY




USA.gov is the U.S. government's official web portal to all federal, state and local government web resources and services.